TimeAKDT,TemperatureF,Dew PointF,Humidity,Sea Level PressureIn,VisibilityMPH,Wind Direction,Wind SpeedMPH,Gust SpeedMPH,PrecipitationIn,Events,Conditions,WindDirDegrees,DateUTC
12:56 AM,10.4,6.8,85,30.26,10.0,North,-9999.0,-,N/A,,Overcast,0,2013-05-02 08:56:00
1:56 AM,9.1,6.1,87,30.28,10.0,North,-9999.0,-,N/A,,Overcast,0,2013-05-02 09:56:00
2:09 AM,8.6,6.8,92,30.26,10.0,North,-9999.0,-,N/A,,Overcast,0,2013-05-02 10:09:00
2:56 AM,8.1,5.0,87,30.28,10.0,North,-9999.0,-,N/A,,Overcast,0,2013-05-02 10:56:00
3:56 AM,8.6,3.2,79,30.26,10.0,North,-9999.0,-,N/A,,Overcast,0,2013-05-02 11:56:00
4:56 AM,8.1,5.0,87,30.27,10.0,North,-9999.0,-,N/A,,Overcast,0,2013-05-02 12:56:00
5:56 AM,9.1,6.1,87,30.27,10.0,North,-9999.0,-,N/A,,Overcast,0,2013-05-02 13:56:00
6:56 AM,10.4,6.8,85,30.24,10.0,North,-9999.0,-,N/A,,Overcast,0,2013-05-02 14:56:00
7:36 AM,10.4,8.6,92,30.23,10.0,North,-9999.0,-,N/A,,Overcast,0,2013-05-02 15:36:00
7:56 AM,11.1,8.1,87,30.25,10.0,North,-9999.0,-,N/A,,Overcast,0,2013-05-02 15:56:00
8:18 AM,10.4,6.8,85,30.23,10.0,North,-9999.0,-,N/A,,Mostly Cloudy,0,2013-05-02 16:18:00
8:26 AM,10.4,6.8,85,30.23,10.0,North,-9999.0,-,N/A,,Overcast,0,2013-05-02 16:26:00
8:49 AM,10.4,6.8,85,30.24,10.0,North,-9999.0,-,N/A,,Overcast,0,2013-05-02 16:49:00
8:56 AM,10.0,7.2,88,30.25,10.0,North,-9999.0,-,N/A,,Overcast,0,2013-05-02 16:56:00
9:56 AM,10.4,5.0,79,30.24,10.0,North,-9999.0,-,N/A,,Overcast,0,2013-05-02 17:56:00
10:56 AM,11.1,6.1,80,30.26,10.0,North,-9999.0,-,N/A,,Overcast,0,2013-05-02 18:56:00
11:56 AM,11.1,5.0,76,30.26,10.0,North,-9999.0,-,0.00,Snow,Light Snow,0,2013-05-02 19:56:00
12:56 PM,10.4,6.8,85,30.25,10.0,North,-9999.0,-,N/A,,Overcast,0,2013-05-02 20:56:00
1:26 PM,10.4,5.0,79,30.25,10.0,North,-9999.0,-,0.00,Snow,Light Snow,0,2013-05-02 21:26:00
1:56 PM,11.1,5.0,76,30.27,10.0,North,-9999.0,-,0.00,,Overcast,0,2013-05-02 21:56:00
2:56 PM,11.1,5.0,76,30.26,10.0,North,-9999.0,-,0.00,,Overcast,0,2013-05-02 22:56:00
3:26 PM,12.2,5.0,73,30.25,5.0,North,-9999.0,-,0.00,Snow,Light Snow,0,2013-05-02 23:26:00
3:36 PM,12.2,5.0,73,30.25,9.0,North,-9999.0,-,0.00,Snow,Light Snow,0,2013-05-02 23:36:00
3:56 PM,12.2,6.8,79,30.25,10.0,North,-9999.0,-,N/A,,Overcast,0,2013-05-02 23:56:00
4:13 PM,12.2,5.0,73,30.25,10.0,North,-9999.0,-,N/A,,Overcast,0,2013-05-03 00:13:00
4:56 PM,12.0,6.1,77,30.26,10.0,North,-9999.0,-,0.00,Snow,Light Snow,0,2013-05-03 00:56:00
5:56 PM,12.0,5.0,73,30.25,10.0,North,-9999.0,-,0.00,,Overcast,0,2013-05-03 01:56:00
6:56 PM,11.1,5.0,76,30.25,10.0,North,-9999.0,-,0.00,Snow,Light Snow,0,2013-05-03 02:56:00
7:56 PM,11.1,5.0,76,30.26,10.0,North,-9999.0,-,0.00,Snow,Light Snow,0,2013-05-03 03:56:00
8:56 PM,11.1,4.1,73,30.26,10.0,North,-9999.0,-,0.00,Snow,Light Snow,0,2013-05-03 04:56:00
9:56 PM,10.0,5.0,80,30.26,10.0,North,-9999.0,-,0.00,Snow,Light Snow,0,2013-05-03 05:56:00
10:47 PM,10.4,5.0,79,30.25,5.0,North,-9999.0,-,0.00,Snow,Light Snow,0,2013-05-03 06:47:00
10:56 PM,10.0,5.0,80,30.27,5.0,North,-9999.0,-,0.00,Snow,Light Snow,0,2013-05-03 06:56:00
11:56 PM,10.0,5.0,80,30.28,7.0,North,-9999.0,-,0.00,Snow,Light Snow,0,2013-05-03 07:56:00